Regional Weather Roundup
Issued by NWS

Home | Current Version | Previous Version | Graphics & Text | Print | Product List | Glossary On
Versions: 1 2 3 4 5 6 7 8 9 10 11 12 13 14 15 16 17 18 19 20 21 22 23 24 25 26 27 28 29 30 31 32 33 34 35 36 37 38 39 40 41 42 43 44 45 46 47 48 49 50
000
ASUS43 KDMX 201107
RWRIA

WEATHER ROUNDUP FOR IOWA
NATIONAL WEATHER SERVICE DES MOINES IA
600 AM CDT WED AUG 20 2014

NOTE: "FAIR" INDICATES FEW OR NO CLOUDS BELOW 12,000 FEET WITH NO
SIGNIFICANT WEATHER AND/OR OBSTRUCTIONS TO VISIBILITY.

* - THESE STATIONS ARE NOT NWS STATIONS...THUS NOT UNDER NWS
QUALITY CONTROL.  THEY ALSO DO NOT REPORT WEATHER SUCH
AS PRECIPITATION OR FOG.

IAZ001>003-012>014-020>022-031>034-043>046-201200-
   NORTHWEST IOWA

CITY           SKY/WX    TMP DP  RH WIND       PRES   REMARKS
CARROLL *      LGT RAIN  68  66  94 SE9       29.81R
CHEROKEE *     CLOUDY    66  66 100 CALM      29.82R
DENISON *      MOCLDY    70  68  94 E8        29.80R
LE MARS *      CLOUDY    70  66  88 S6        29.81S
ORANGE CITY *  CLOUDY    70  64  83 N13       29.86R
SHELDON *      CLOUDY    64  63  94 SW8       29.86R
SIOUX CITY     LGT RAIN  70  64  81 E10       29.74F
SPENCER        CLOUDY    63  61  93 CALM      29.84R
STORM LAKE *   PTCLDY    66  66 100 SE7       29.83F
$$

IAZ055>058-069>071-079>083-090>094-201200-
   SOUTHWEST IOWA

CITY           SKY/WX    TMP DP  RH WIND       PRES   REMARKS
ATLANTIC *     MOCLDY    72  64  78 SE5       29.81R
AUDUBON *      MOCLDY    70  66  88 SE3       29.82R
CLARINDA *     CLEAR     73  72  94 N5        29.83R
COUNCIL BLFS *   N/A     70  70 100 SE8       29.77S
CRESTON *      CLEAR     70  66  88 SE5       29.82F
HARLAN  *      MOCLDY    70  66  88 E5        29.84R
LAMONI         CLOUDY    72  68  87 MISG      29.88R
RED OAK *      CLOUDY    72  68  88 E7        29.81R
SHENANDOAH *   CLEAR     73  70  88 E5        29.80R
$$

IAZ047>049-059>061-072>074-084-201200-
   CENTRAL IOWA

CITY           SKY/WX    TMP DP  RH WIND       PRES   REMARKS
AMES           MOCLDY    65  64  97 E5        29.82S
ANKENY *       CLOUDY    68  68 100 CALM      29.81F
CHARITON *     LGT RAIN  70  68  94 NW10      29.89R
DES MOINES     CLOUDY    70  68  94 S7        29.81R
GRINNELL*      MOCLDY    66  64  94 SW10      29.88R
KNOXVILLE *    CLOUDY    68  66  94 W8G21     29.87R
MARSHALLTOWN   PTCLDY    62  60  93 CALM      29.84R
PELLA *        LGT RAIN  66  66 100 NW9       29.86R
PERRY *          N/A     68  66  94 CALM      29.81S
$$

IAZ004>006-015-016-023>025-035-036-201200-
   NORTH CENTRAL IOWA

CITY           SKY/WX    TMP DP  RH WIND       PRES   REMARKS
ALGONA *       PTCLDY    63  63 100 S7        29.85R
CLARION *      CLEAR     63  63 100 SE3       29.84R
ESTHERVILLE    MOCLDY    60  59  96 CALM      29.83R
FORT DODGE *   MOCLDY    64  63  94 CALM      29.85R
MASON CITY     CLEAR     59  58  96 CALM      29.84R
FOREST CITY *  CLEAR     57  57 100 CALM      29.83R FOG
IOWA FALLS *     N/A     64  61  88 S3        29.85R
$$

IAZ007>011-017>019-026>030-037>042-050>054-066-201200-
   NORTHEAST IOWA

CITY           SKY/WX    TMP DP  RH WIND       PRES   REMARKS
CEDAR RAPIDS   PTCLDY    61  61 100 SE3       29.83R FOG
CHARLES CITY * CLEAR     61  61 100 CALM      29.82S FOG
CLINTON *      CLEAR     61  57  88 CALM      29.87R
DECORAH *      MOCLDY    61  61 100 CALM      29.82S FOG
DUBUQUE        CLEAR     63  61  93 CALM      29.84R
MONTICELLO *   CLEAR     59  59 100 CALM      29.83S
OELWEIN *      CLEAR     61  61 100 E5        29.83R FOG
WATERLOO       CLEAR     62  60  93 SW7       29.83R
$$

IAZ064-065-067-068-078-201200-
   EAST CENTRAL IOWA

CITY           SKY/WX    TMP DP  RH WIND       PRES   REMARKS
DAVENPORT      CLEAR     63  61  93 SW5       29.86R
IOWA CITY      CLEAR     65  63  93 CALM      29.85R
MT. PLEASANT * LGT RAIN  66  66 100 CALM      29.85S
MUSCATINE *    CLEAR     61  59  94 CALM      29.84F
QUAD CITIES    CLEAR     61  59  93 SW3       29.85R
$$

IAZ062-063-075>077-085>089-095>099-201200-
   SOUTHEAST IOWA

CITY           SKY/WX    TMP DP  RH WIND       PRES   REMARKS
BURLINGTON     PTCLDY    66  66 100 CALM      29.84S FOG
FAIRFIELD *    MOCLDY    68  66  94 E5        29.83F
FORT MADISON * PTCLDY    70  68  94 CALM      29.86R
KEOKUK *       MOCLDY    70  70 100 CALM      29.85R
OSKALOOSA *      N/A     66  66 100 SE5       29.82F
CENTERVILLE *  CLEAR     70  68  94 SE5       29.85S
OTTUMWA        CLOUDY    68  65  90 S3        29.82F
WASHINGTON *   MOCLDY    63  63 100 E5        29.84S FOG
$$

ABBREVIATIONS USED IN REMARKS
   TC - TEMPERATURES IN CELSIUS
  WCI - WIND CHILL INDEX
   HX - HEAT INDEX
  VSB - VISIBILITY
$$




USA.gov is the U.S. government's official web portal to all federal, state and local government web resources and services.